This is the latest recevied weather packets stored in our database for station/object PA1CD-13. If no packets are shown the sender has not sent any weather packets the latest 10 day(s).
| Time | Temp. | Humidity | Pressure | Rain* | Wind** | Luminosity | Snow |
|---|---|---|---|---|---|---|---|
| 1777468205 | 17.22° C | 44% | 1027.1 hPa | 25.65 mm | - | 744 W/m² | - |
| 1777468084 | 17.22° C | 44% | 1027.1 hPa | 25.65 mm | - | 747 W/m² | - |
| 1777467964 | 17.22° C | 45% | 1027.1 hPa | 25.65 mm | - | 747 W/m² | - |
| 1777467844 | 17.22° C | 45% | 1027.2 hPa | 25.65 mm | - | 749 W/m² | - |
| 1777467725 | 17.22° C | 48% | 1027.2 hPa | 25.65 mm | - | 753 W/m² | - |
| 1777467605 | 17.22° C | 48% | 1027.2 hPa | 25.65 mm | - | 754 W/m² | - |
| 1777467485 | 17.22° C | 47% | 1027.1 hPa | 25.65 mm | - | 751 W/m² | - |
| 1777467364 | 16.67° C | 46% | 1027.2 hPa | 25.65 mm | - | 754 W/m² | - |
| 1777467244 | 16.67° C | 46% | 1027.2 hPa | 25.65 mm | - | 760 W/m² | - |
| 1777467124 | 16.67° C | 44% | 1027.2 hPa | 25.65 mm | - | 760 W/m² | - |
| 1777467009 | 16.67° C | 45% | 1027.2 hPa | 25.65 mm | - | 763 W/m² | - |
| 1777466884 | 16.67° C | 47% | 1027.2 hPa | 25.65 mm | - | 763 W/m² | - |
| 1777466763 | 16.67° C | 47% | 1027.2 hPa | 25.65 mm | - | 763 W/m² | - |
| 1777466644 | 16.67° C | 46% | 1027.1 hPa | 25.65 mm | - | 765 W/m² | - |
| 1777466524 | 16.67° C | 47% | 1027.2 hPa | 25.65 mm | - | 768 W/m² | - |
| 1777466405 | 16.67° C | 48% | 1027.2 hPa | 25.65 mm | - | 768 W/m² | - |
| 1777466285 | 16.67° C | 47% | 1027.2 hPa | 25.65 mm | - | 772 W/m² | - |
| 1777466165 | 16.67° C | 47% | 1027.1 hPa | 25.65 mm | - | 772 W/m² | - |
| 1777466044 | 16.67° C | 44% | 1027.2 hPa | 25.65 mm | - | 603 W/m² | - |
| 1777465924 | 17.22° C | 44% | 1027.3 hPa | 25.65 mm | - | 774 W/m² | - |
| 1777465806 | 17.22° C | 47% | 1027.3 hPa | 0 mm | - | 775 W/m² | - |
| 1777465685 | 16.67° C | 47% | 1027.3 hPa | 0 mm | - | 775 W/m² | - |
| 1777465564 | 16.67° C | 47% | 1027.3 hPa | 0 mm | - | 781 W/m² | - |
| 1777465445 | 16.67° C | 47% | 1027.2 hPa | 0 mm | - | 779 W/m² | - |
* Rain latest hour (hover to see other rain measurements)
** Current wind speed in m/s (hover to see current wind gust speed)